Weather History for Montpelier, VT

Change the Weather History Date:

Sunday, May 26, 2013

  Actual Average Record
Temperature  
Mean Temperature 41 °F 57 °F  
Max Temperature 48 °F 69 °F 87 °F (2010)
Min Temperature 33 °F 45 °F 27 °F (1956)
Degree Days  
Heating Degree Days 24    
Cooling Degree Days 0 1  
Month to date cooling degree days 3 2  
Year to date cooling degree days 3 3  
Moisture  
Dew Point 37 °F    
Average Humidity 86    
Maximum Humidity 100    
Minimum Humidity 71    
Precipitation  
Precipitation 0.07 in 0.12 in 3.83 in (2011)
Month to date precipitation 3.73 2.79  
Year to date precipitation 8.81 12.33  
Sea Level Pressure  
Sea Level Pressure 29.97 in    
Wind  
Wind Speed 8 mph (NW)    
Max Wind Speed 18 mph    
Max Gust Speed 25 mph    
Visibility 10 miles    
Events Rain    
T = Trace of Precipitation, MM = Missing Value Source: NWS Daily Summary

Daily Weather History Graph

Daily Weather History Graph

Search for Another Location

Airport:

Trip Planner

Search our weather history database for the weather conditions in past years. The results will help you decide how hot, cold, wet, or windy it might be!

Date:

Astronomy

May. 26, 2013 Rise Set
Actual Time 5:13 AM EDT 8:21 PM EDT
Civil Twilight 4:38 AM EDT 8:56 PM EDT
Nautical Twilight 3:53 AM EDT 9:42 PM EDT
Astronomical Twilight 2:59 AM EDT 10:36 PM EDT
Moon 10:05 PM EDT (5/26) 6:39 AM EDT (5/26)
Length of Visible Light 16h 18m
Length of Day
15h 08m
Waning Gibbous, 97% of the Moon is Illuminated
May 26
Waning Gibbous
May 31
Last Quarter
Jun 8
New
Jun 16
First Quarter
Jun 23
Full

Hourly Weather History & Observations

Time (EDT) Temp. Windchill Dew Point Humidity Pressure Visibility Wind Dir Wind Speed Gust Speed Precip Events Conditions
12:51 AM 36.0 °F 29.0 °F 35.1 °F 97% 29.90 in 10.0 mi NW 9.2 mph - 0.01 in Rain Light Rain
1:51 AM 37.0 °F 31.0 °F 35.1 °F 93% 29.89 in 10.0 mi NW 8.1 mph - 0.02 in Rain Light Rain
2:51 AM 37.0 °F 31.6 °F 35.1 °F 93% 29.88 in 9.0 mi NW 6.9 mph - 0.03 in Rain Light Rain
3:23 AM 37.4 °F 30.8 °F 35.6 °F 93% 29.84 in 10.0 mi NW 9.2 mph - 0.01 in Rain Light Rain
3:38 AM 37.4 °F 31.4 °F 35.6 °F 93% 29.84 in 10.0 mi NNW 8.1 mph - 0.01 in Rain Light Rain
3:51 AM 37.0 °F 31.6 °F 35.1 °F 93% 29.87 in 10.0 mi NNW 6.9 mph - 0.01 in Rain Light Rain
4:51 AM 37.0 °F 31.0 °F 36.0 °F 96% 29.88 in 10.0 mi NNW 8.1 mph - 0.00 in   Overcast
4:58 AM 37.4 °F 31.4 °F 35.6 °F 93% 29.84 in 10.0 mi NW 8.1 mph - N/A   Overcast
5:51 AM 37.0 °F 33.3 °F 36.0 °F 96% 29.89 in 10.0 mi NW 4.6 mph - N/A   Overcast
6:51 AM 39.0 °F 34.0 °F 37.0 °F 93% 29.90 in 10.0 mi NNW 6.9 mph - N/A   Overcast
7:51 AM 39.9 °F 32.5 °F 37.0 °F 89% 29.91 in 10.0 mi NW 12.7 mph 18.4 mph N/A   Overcast
8:51 AM 41.0 °F 35.2 °F 37.0 °F 86% 29.92 in 10.0 mi NNW 9.2 mph 20.7 mph 0.00 in Rain Light Rain
9:18 AM 42.8 °F 36.6 °F 35.6 °F 76% 29.90 in 10.0 mi NNW 11.5 mph 20.7 mph 0.01 in   Overcast
9:51 AM 43.0 °F 36.4 °F 37.0 °F 80% 29.93 in 10.0 mi NNW 12.7 mph 21.9 mph 0.01 in   Overcast
10:51 AM 44.1 °F 38.1 °F 37.9 °F 79% 29.94 in 10.0 mi NNW 11.5 mph 19.6 mph 0.00 in   Overcast
11:15 AM 42.8 °F 36.6 °F 37.4 °F 81% 29.91 in 10.0 mi NNW 11.5 mph 18.4 mph 0.00 in Rain Light Rain
11:51 AM 43.0 °F 37.2 °F 37.9 °F 82% 29.96 in 10.0 mi NW 10.4 mph 17.3 mph 0.00 in Rain Light Rain
12:29 PM 42.8 °F 37.0 °F 39.2 °F 87% 29.94 in 10.0 mi NNW 10.4 mph - 0.00 in Rain Light Rain
12:49 PM 44.6 °F 39.2 °F 39.2 °F 81% 29.95 in 10.0 mi NNW 10.4 mph 19.6 mph 0.00 in   Overcast
12:51 PM 46.0 °F 39.6 °F 39.0 °F 76% 29.98 in 10.0 mi NW 15.0 mph 24.2 mph 0.00 in   Overcast
1:51 PM 44.1 °F 37.7 °F 39.0 °F 82% 29.99 in 10.0 mi NW 12.7 mph 20.7 mph 0.00 in Rain Light Rain
2:51 PM 46.0 °F 39.9 °F 41.0 °F 83% 30.00 in 10.0 mi NNW 13.8 mph 23.0 mph 0.01 in   Overcast
3:36 PM 46.4 °F 40.4 °F 39.2 °F 76% 29.99 in 10.0 mi NW 13.8 mph 23.0 mph N/A   Overcast
3:51 PM 46.0 °F 39.9 °F 39.0 °F 76% 30.03 in 10.0 mi NW 13.8 mph - N/A   Mostly Cloudy
4:13 PM 44.6 °F 39.2 °F 39.2 °F 81% 30.01 in 9.0 mi NW 10.4 mph 20.7 mph 0.00 in Rain Light Rain
4:51 PM 45.0 °F 39.3 °F 39.0 °F 80% 30.06 in 10.0 mi NW 11.5 mph 21.9 mph 0.00 in   Overcast
5:20 PM 44.6 °F 37.4 °F 39.2 °F 81% 30.04 in 10.0 mi NW 16.1 mph 24.2 mph 0.00 in Rain Light Rain
5:51 PM 44.1 °F 37.4 °F 39.0 °F 82% 30.08 in 10.0 mi NW 13.8 mph 20.7 mph 0.00 in Rain Light Rain
6:51 PM 45.0 °F 39.3 °F 37.9 °F 76% 30.11 in 10.0 mi NNW 11.5 mph 16.1 mph 0.00 in   Overcast
7:51 PM 46.0 °F 44.8 °F 37.9 °F 73% 30.12 in 10.0 mi WNW 3.5 mph - N/A   Overcast
8:51 PM 42.1 °F 40.2 °F 37.0 °F 82% 30.13 in 10.0 mi WNW 3.5 mph - N/A   Mostly Cloudy
9:51 PM 39.0 °F 35.7 °F 37.0 °F 93% 30.12 in 10.0 mi WSW 4.6 mph - N/A   Scattered Clouds
10:51 PM 39.0 °F - 36.0 °F 89% 30.13 in 10.0 mi Calm Calm - N/A   Mostly Cloudy
11:51 PM 35.1 °F - 34.0 °F 96% 30.13 in 10.0 mi Calm Calm - N/A   Partly Cloudy